Weather History for Port Angeles, WA

Change the Weather History Date:

Sunday, July 28, 2013

  Actual Average Record
Temperature  
Mean Temperature 58 °F -  
Max Temperature 69 °F 69 °F 91 °F (1958)
Min Temperature 48 °F 52 °F 40 °F (1986)
Degree Days  
Heating Degree Days 7    
Growing Degree Days 8 (Base 50)    
Moisture  
Dew Point 51 °F    
Average Humidity 79    
Maximum Humidity 97    
Minimum Humidity 59    
Precipitation  
Precipitation 0.00 in - - ()
Sea Level Pressure  
Sea Level Pressure 29.99 in    
Wind  
Wind Speed 5 mph (WNW)    
Max Wind Speed 9 mph    
Max Gust Speed -    
Visibility 10 miles    
Events      
Averages and records for this station are not official NWS values.
T = Trace of Precipitation, MM = Missing Value Source: NWS Daily Summary

Daily Weather History Graph

Daily Weather History Graph

Search for Another Location

Airport:

Trip Planner

Search our weather history database for the weather conditions in past years. The results will help you decide how hot, cold, wet, or windy it might be!

Date:

Astronomy

Jul. 28, 2013 Rise Set
Actual Time 5:45 AM PDT 8:55 PM PDT
Civil Twilight 5:07 AM PDT 9:32 PM PDT
Nautical Twilight 4:19 AM PDT 10:20 PM PDT
Astronomical Twilight 3:18 AM PDT 11:20 PM PDT
Moon 11:41 PM PDT (7/28) 1:10 PM PDT (7/28)
Length of Visible Light 16h 24m
Length of Day
15h 09m
Waning Gibbous, 60% of the Moon is Illuminated
Jul 28
Waning Gibbous
Jul 29
Last Quarter
Aug 6
New
Aug 14
First Quarter
Aug 20
Full

Hourly Weather History & Observations

Time (PDT) Temp. Dew Point Humidity Pressure Visibility Wind Dir Wind Speed Gust Speed Precip Events Conditions
12:53 AM 53.1 °F 50.0 °F 89% 30.01 in 10.0 mi West 6.9 mph - N/A   Clear
1:53 AM 51.1 °F 48.9 °F 92% 30.01 in 10.0 mi WNW 5.8 mph - N/A   Clear
2:53 AM 48.9 °F 46.9 °F 93% 30.01 in 10.0 mi WSW 6.9 mph - N/A   Clear
3:53 AM 48.9 °F 48.0 °F 97% 30.00 in 10.0 mi WSW 4.6 mph - N/A   Clear
4:53 AM 48.9 °F 48.0 °F 97% 30.00 in 10.0 mi SW 3.5 mph - N/A   Clear
5:53 AM 48.0 °F 46.0 °F 93% 30.00 in 10.0 mi West 3.5 mph - N/A   Clear
6:53 AM 51.1 °F 48.9 °F 92% 30.00 in 10.0 mi Calm Calm - N/A   Clear
7:53 AM 57.0 °F 52.0 °F 83% 30.01 in 10.0 mi Calm Calm - N/A   Clear
8:53 AM 59.0 °F 52.0 °F 78% 30.01 in 10.0 mi Calm Calm - N/A   Clear
9:53 AM 64.9 °F 53.1 °F 65% 30.01 in 10.0 mi Variable 6.9 mph - N/A   Clear
10:53 AM 64.9 °F 52.0 °F 63% 30.01 in 10.0 mi Variable 4.6 mph - N/A   Clear
11:53 AM 64.9 °F 52.0 °F 63% 30.01 in 10.0 mi Variable 4.6 mph - N/A   Clear
12:53 PM 68.0 °F 53.1 °F 59% 30.00 in 10.0 mi Variable 4.6 mph - N/A   Clear
1:53 PM 66.9 °F 53.1 °F 61% 29.99 in 10.0 mi NE 5.8 mph - N/A   Clear
2:53 PM 66.0 °F 53.1 °F 63% 29.99 in 10.0 mi NE 5.8 mph - N/A   Clear
3:53 PM 61.0 °F 52.0 °F 72% 29.99 in 10.0 mi North 5.8 mph - N/A   Clear
4:53 PM 62.1 °F 52.0 °F 70% 29.97 in 10.0 mi WNW 9.2 mph - N/A   Clear
5:53 PM 62.1 °F 52.0 °F 70% 29.96 in 10.0 mi NW 6.9 mph - N/A   Clear
6:53 PM 61.0 °F 52.0 °F 72% 29.96 in 10.0 mi NW 4.6 mph - N/A   Clear
7:53 PM 59.0 °F 51.1 °F 75% 29.96 in 10.0 mi NW 5.8 mph - N/A   Clear
8:53 PM 55.0 °F 50.0 °F 83% 29.97 in 10.0 mi West 4.6 mph - N/A   Clear
9:53 PM 55.0 °F 51.1 °F 86% 29.97 in 10.0 mi WNW 5.8 mph - N/A   Clear
10:53 PM 53.1 °F 50.0 °F 89% 29.98 in 10.0 mi West 9.2 mph - N/A   Clear
11:53 PM 52.0 °F 50.0 °F 93% 29.98 in 10.0 mi West 8.1 mph - N/A   Clear